Weather in Kindelya

Russia / Orenburg Oblast     51°37′24″N   52°59′24″E
temp.,
°C
wind,
m/s
gust,
m/s
humid.,
%
clouds,
%
prec.,
mm/h
press.,
hPa
HPBL,
m
16 september, thu
thu1623:00+12wnw33410 0.0 100843
02:00+9nnw34510 0.0 100851
05:00+8nnw33664 0.0 100933
08:00+8nw35665 0.0 1010143
11:00+15nw56405 0.0 10101330
14:00+17wnw663586 0.0 10102042
17:00+16wnw6637100 0.0 10102146
20:00+13nnw2450100 0.0 1009161
17 september, fri
fri1723:00+12nnw4754100 0.0 1009355
02:00+10n695858 0.2 1011620
05:00+6nw486830 0.2 1013184
08:00+10nw4848100 0.0 10141525
11:00+11nw6746100 0.0 10151686
14:00+12nw5641100 0.0 10151784
17:00+13nw664085 0.0 10151795
20:00+10n354479 0.0 1016127
18 september, sat
sat1823:00+7nnw235679 0.0 101728
02:00+7w3455100 0.0 1017103
05:00+7w345488 0.0 101784
08:00+7w3652100 0.0 1017200
11:00+11nw684659 0.0 10181739
14:00+14nnw782883 0.0 10182380
17:00+14nnw67270 0.0 10182131
20:00+9nnw45380 0.0 101964
19 september, sun
sun1923:00+5nne33655 0.0 102243
02:00+4nw227368 0.0 102223
05:00+3nw337315 0.0 102342
08:00+4nnw346945 0.0 102495
11:00+9nnw34415 0.0 10251163
14:00+13nw44292 0.0 10251490
17:00+14nnw44265 0.0 10241583
20:00+9n334123 0.0 102529
20 september, mon
mon2023:00+6nne3346100 0.0 102636
02:00+5ne22525 0.0 102614
05:00+3ene225710 0.0 102710
08:00+4ene235375 0.0 102748
11:00+11ese333361 0.0 1027684
14:00+15ese332283 0.0 10261199
17:00+16e331974 0.0 10251405
20:00+12e342689 0.0 102547